Location: Ferintosh
(52.7647°N, 112.9692°W)
Time: 19:07:48
(UTC+00:00)

Explorer 7 - Pass Details

Date: 22 May 2024
Orbit: 466 x 622 km, 50.3° (Epoch: 16 June)

Event Time Altitude Azimuth Distance (km) Brightness Sun altitude
Rises 09:37:03 0° 268° (W) 2,611 - -11.6°
Exits shadow 09:37:35 - 268° (W) 2,398 9.8 -11.5°
Reaches altitude 10° 09:39:13 10° 265° (W) 1,751 9.0 -11.4°
Maximum altitude 09:43:08 60° 186° (S) 618 6.8 -11.1°
Drops below altitude 10° 09:47:17 10° 106° (ESE) 1,848 9.7 -10.8°
Sets 09:49:37 0° 103° (ESE) 2,773 10.7 -10.6°
